Regional Weather Roundup
Issued by NWS

Home | Current Version | Previous Version | Graphics & Text | Print | Product List | Glossary On
Versions: 1 2 3 4 5 6 7 8 9 10 11 12 13 14 15 16 17 18 19 20 21 22 23 24 25 26 27
000
ASUS43 KDMX 151107
RWRIA

WEATHER ROUNDUP FOR IOWA
NATIONAL WEATHER SERVICE DES MOINES IA
600 AM CDT TUE APR 15 2014

NOTE: "FAIR" INDICATES FEW OR NO CLOUDS BELOW 12,000 FEET WITH NO
SIGNIFICANT WEATHER AND/OR OBSTRUCTIONS TO VISIBILITY.

* - THESE STATIONS ARE NOT NWS STATIONS...THUS NOT UNDER NWS
QUALITY CONTROL.  THEY ALSO DO NOT REPORT WEATHER SUCH
AS PRECIPITATION OR FOG.

IAZ001>003-012>014-020>022-031>034-043>046-151200-
   NORTHWEST IOWA

CITY           SKY/WX    TMP DP  RH WIND       PRES   REMARKS
CARROLL *      PTCLDY    23  19  86 NW6       30.19R WCI  16
CHEROKEE *     CLEAR     18  10  73 CALM      30.19S
DENISON *      PTCLDY    21  18  86 CALM      30.18S
LE MARS *      CLEAR     18  16  93 CALM      30.19F
ORANGE CITY *  CLEAR     21  16  79 CALM      30.17S
SHELDON *      CLEAR     12   9  85 CALM      30.17S
SIOUX CITY     CLEAR     22  16  78 CALM      30.19F
SPENCER        CLEAR     14  10  84 W6        30.18R WCI   5
STORM LAKE *   CLEAR     19  16  86 N6        30.17S WCI  11
$$

IAZ055>058-069>071-079>083-090>094-151200-
   SOUTHWEST IOWA

CITY           SKY/WX    TMP DP  RH WIND       PRES   REMARKS
ATLANTIC *     CLEAR     25  19  80 CALM      30.19R
AUDUBON *      CLEAR     19  12  73 CALM      30.18R
COUNCIL BLFS * CLEAR     25  19  80 NE5       30.17S WCI  19
CRESTON *      PTCLDY    25  19  80 NW6       30.17R WCI  18
HARLAN  *      CLEAR     21  19  93 CALM      30.22R
LAMONI         CLEAR     25  20  81 W5        30.16R WCI  19
RED OAK *      CLEAR     25  23  93 CALM      30.19S
SHENANDOAH *   CLEAR     25  23  93 CALM      30.20S
$$

IAZ047>049-059>061-072>074-084-151200-
   CENTRAL IOWA

CITY           SKY/WX    TMP DP  RH WIND       PRES   REMARKS
AMES           CLEAR     25  18  74 NW7       30.17R WCI  17
ANKENY *       CLOUDY    27  19  74 NW9       30.17R WCI  17
CHARITON *     MOCLDY    25  21  86 W6        30.17R WCI  18
DES MOINES     PTCLDY    26  19  74 NW7       30.18R WCI  18
GRINNELL*      PTCLDY    25  19  80 NW6       30.15R WCI  18
KNOXVILLE *    MOCLDY    23  18  80 NW7       30.16R WCI  15
MARSHALLTOWN   CLEAR     24  20  84 NW8       30.14R WCI  15
NEWTON *       CLOUDY    27  19  74 NW8       30.17R WCI  18
PELLA *        CLOUDY    28  19  69 NW8       30.17R WCI  20
PERRY *        MOCLDY    27  21  80 NW8       30.18R WCI  18
$$

IAZ004>006-015-016-023>025-035-036-151200-
   NORTH CENTRAL IOWA

CITY           SKY/WX    TMP DP  RH WIND       PRES   REMARKS
ALGONA *       CLEAR     21  14  73 NW6       30.16S WCI  14
CLARION *      CLEAR     21  16  79 NW9       30.16R WCI  11
ESTHERVILLE    CLEAR     14  12  92 NW6       30.15R WCI   5
FORT DODGE *   CLEAR     21  14  73 N6        30.18R WCI  14
MASON CITY     CLEAR     20  11  68 NW12      30.14R WCI   8
FOREST CITY *  CLEAR     21   9  58 NW9       30.13S WCI  11
IOWA FALLS *     N/A     25  16  68 NW12      30.16R WCI  14
$$

IAZ007>011-017>019-026>030-037>042-050>054-066-151200-
   NORTHEAST IOWA

CITY           SKY/WX    TMP DP  RH WIND       PRES   REMARKS
CEDAR RAPIDS   CLEAR     24  17  74 NW10      30.11R WCI  14
CHARLES CITY * CLEAR     23  14  68 NW9       30.12R WCI  13
CLINTON *      CLEAR     21  18  86 NW5       30.12R WCI  15
DECORAH *      MOCLDY    25  16  68 NW8G15    30.08R WCI  16
DUBUQUE        CLEAR     22  16  78 NW8       30.07R WCI  12
MONTICELLO *   PTCLDY    25  18  74 NW10      30.10R WCI  15
OELWEIN *      CLEAR    N/A N/A N/A NW14G20   30.11R
WATERLOO       CLEAR     23  15  71 NW7       30.13R WCI  15
$$

IAZ064-065-067-068-078-151200-
   EAST CENTRAL IOWA

CITY           SKY/WX    TMP DP  RH WIND       PRES   REMARKS
DAVENPORT      CLEAR     25  20  81 NW8       30.10R WCI  16
IOWA CITY      CLEAR     26  17  68 NW8       30.14R WCI  18
MT. PLEASANT * CLEAR     27  19  74 W6        30.14R WCI  20
MUSCATINE *    CLEAR     27  19  74 NW9       30.14R WCI  17
QUAD CITIES    CLEAR     27  18  69 NW9       30.11R WCI  18
$$

IAZ062-063-075>077-085>089-095>099-151200-
   SOUTHEAST IOWA

CITY           SKY/WX    TMP DP  RH WIND       PRES   REMARKS
BURLINGTON     CLEAR     27  18  69 NW8       30.13R WCI  19
FAIRFIELD *    CLEAR     25  19  80 W8        30.15R WCI  16
FORT MADISON * CLEAR     27  19  74 NW7       30.14R WCI  19
KEOKUK *       CLEAR     27  18  69 NW7       30.14R WCI  19
OSKALOOSA *      N/A     25  21  86 NW8       30.15S WCI  16
CENTERVILLE *  CLEAR     25  19  80 W6        30.17R WCI  18
OTTUMWA        CLEAR     23  17  78 W7        30.15R WCI  15
WASHINGTON *   CLEAR     25  19  80 W8        30.14R WCI  16
$$

ABBREVIATIONS USED IN REMARKS
   TC - TEMPERATURES IN CELSIUS
  WCI - WIND CHILL INDEX
   HX - HEAT INDEX
  VSB - VISIBILITY
$$




USA.gov is the U.S. government's official web portal to all federal, state and local government web resources and services.